QPF
0.00 0.00 0.00 0.00 0.00 0.00 0.00 0.00 0.00 0.00 0.00 0.00 0.00 0.00 0.00 0.00 0.00 0.00 0.00 0.00 0.00 0.01 0.01 0.00 0.00 0.00 0.00 0.00 0.00 0.01 0.01 0.01 0.01 0.01 0.00 0.01 0.01 0.01 0.01 0.01 0.01 0.01 0.01 0.01
0.00 0.00 0.00 0.00 0.00 0.00 0.00 0.00 0.00 0.00 0.00 0.00 0.00 0.00 0.00 0.00 0.00 0.00 0.00 0.00 0.00 0.00 0.00 0.00 0.00 0.00 0.01 0.01 0.02 0.01 0.01 0.01 0.01 0.01 0.01 0.01 0.01 0.01 0.01 0.01 0.01 0.01 0.01 0.01
0.00 0.00 0.00 0.00 0.00 0.00 0.00 0.00 0.00 0.00 0.00 0.00 0.00 0.00 0.00 0.00 0.00 0.00 0.00 0.00 0.00 0.00 0.00 0.00 0.01 0.01 0.02 0.02 0.01 0.01 0.01 0.01 0.01 0.01 0.01 0.01 0.01 0.01 0.01 0.01 0.01 0.01 0.01 0.02
0.01 0.00 0.00 0.00 0.00 0.00 0.00 0.00 0.00 0.00 0.00 0.00 0.00 0.00 0.00 0.00 0.00 0.01 0.00 0.00 0.00 0.00 0.00 0.01 0.01 0.01 0.01 0.01 0.01 0.01 0.01 0.01 0.01 0.01 0.00 0.01 0.01 0.01 0.01 0.01 0.01 0.02 0.02 0.02
0.01 0.01 0.00 0.00 0.00 0.00 0.00 0.00 0.00 0.00 0.00 0.00 0.00 0.00 0.00 0.00 0.00 0.00 0.00 0.00 0.00 0.01 0.01 0.01 0.01 0.01 0.01 0.01 0.00 0.01 0.01 0.01 0.01 0.01 0.01 0.01 0.01 0.01 0.01 0.01 0.02 0.02 0.02 0.03
0.02 0.01 0.00 0.00 0.00 0.00 0.00 0.00 0.00 0.00 0.00 0.00 0.00 0.01 0.00 0.00 0.00 0.00 0.00 0.00 0.01 0.01 0.01 0.01 0.01 0.01 0.01 0.01 0.01 0.01 0.01 0.01 0.01 0.01 0.01 0.01 0.01 0.01 0.01 0.01 0.01 0.02 0.02 0.03
0.02 0.01 0.01 0.00 0.00 0.00 0.00 0.01 0.01 0.00 0.00 0.00 0.01 0.01 0.01 0.00 0.00 0.00 0.00 0.00 0.01 0.01 0.01 0.01 0.01 0.01 0.01 0.01 0.01 0.01 0.01 0.01 0.01 0.01 0.01 0.01 0.01 0.01 0.01 0.01 0.01 0.01 0.02 0.02
0.01 0.02 0.01 0.00 0.00 0.00 0.01 0.00 0.00 0.00 0.00 0.00 0.00 0.00 0.00 0.00 0.00 0.00 0.00 0.00 0.00 0.01 0.01 0.01 0.01 0.01 0.00 0.01 0.01 0.01 0.01 0.01 0.00 0.00 0.01 0.01 0.01 0.01 0.01 0.01 0.01 0.01 0.02 0.02
0.03 0.03 0.01 0.00 0.00 0.00 0.00 0.00 0.00 0.00 0.00 0.00 0.00 0.00 0.00 0.00 0.00 0.00 0.00 0.00 0.00 0.01 0.01 0.01 0.01 0.01 0.01 0.01 0.01 0.01 0.01 0.01 0.01 0.00 0.00 0.00 0.01 0.01 0.01 0.01 0.01 0.01 0.01 0.01
0.03 0.02 0.01 0.01 0.00 0.00 0.00 0.00 0.00 0.00 0.00 0.00 0.00 0.00 0.00 0.00 0.00 0.00 0.00 0.00 0.00 0.00 0.00 0.01 0.01 0.00 0.00 0.01 0.00 0.00 0.00 0.00 0.00 0.00 0.00 0.01 0.01 0.01 0.01 0.01 0.01 0.01 0.01 0.01
0.02 0.01 0.01 0.01 0.00 0.00 0.00 0.00 0.00 0.00 0.00 0.00 0.00 0.00 0.00 0.00 0.00 0.00 0.00 0.00 0.00 0.00 0.00 0.00 0.01 0.00 0.00 0.00 0.00 0.00 0.00 0.00 0.00 0.00 0.00 0.00 0.00 0.01 0.01 0.01 0.01 0.01 0.01 0.01
0.01 0.01 0.01 0.00 0.00 0.00 0.00 0.00 0.00 0.00 0.00 0.00 0.00 0.00 0.00 0.00 0.00 0.00 0.00 0.00 0.00 0.00 0.00 0.00 0.00 0.00 0.00 0.01 0.01 0.01 0.01 0.01 0.00 0.00 0.00 0.00 0.00 0.00 0.01 0.01 0.01 0.01 0.01 0.01
0.01 0.01 0.01 0.00 0.00 0.00 0.00 0.00 0.00 0.00 0.00 0.00 0.00 0.00 0.00 0.00 0.00 0.00 0.00 0.00 0.00 0.00 0.00 0.00 0.00 0.00 0.00 0.00 0.01 0.01 0.01 0.01 0.00 0.00 0.00 0.00 0.00 0.00 0.01 0.01 0.01 0.02 0.01 0.01
0.01 0.01 0.01 0.00 0.00 0.00 0.00 0.00 0.00 0.00 0.00 0.00 0.00 0.00 0.00 0.00 0.00 0.00 0.00 0.00 0.00 0.00 0.00 0.00 0.00 0.00 0.00 0.00 0.00 0.00 0.00 0.00 0.00 0.00 0.01 0.00 0.00 0.00 0.00 0.01 0.01 0.02 0.02 0.02
0.00 0.00 0.00 0.00 0.00 0.00 0.00 0.00 0.00 0.00 0.00 0.00 0.00 0.00 0.00 0.00 0.00 0.00 0.00 0.00 0.00 0.00 0.00 0.00 0.00 0.00 0.00 0.00 0.00 0.00 0.00 0.00 0.00 0.00 0.00 0.00 0.00 0.00 0.00 0.01 0.01 0.01 0.02 0.02
0.00 0.00 0.00 0.00 0.00 0.00 0.00 0.00 0.00 0.00 0.00 0.00 0.00 0.00 0.00 0.00 0.00 0.00 0.00 0.00 0.00 0.01 0.00 0.00 0.00 0.00 0.00 0.00 0.01 0.01 0.01 0.00 0.00 0.00 0.00 0.00 0.00 0.00 0.00 0.00 0.01 0.01 0.01 0.02
0.00 0.00 0.00 0.00 0.00 0.00 0.00 0.00 0.00 0.00 0.00 0.00 0.00 0.00 0.00 0.00 0.00 0.00 0.00 0.00 0.00 0.00 0.01 0.01 0.01 0.00 0.00 0.00 0.01 0.01 0.01 0.00 0.00 0.00 0.00 0.00 0.00 0.00 0.00 0.00 0.01 0.01 0.01 0.01
0.00 0.00 0.00 0.00 0.01 0.01 0.01 0.01 0.00 0.00 0.00 0.00 0.00 0.00 0.00 0.00 0.00 0.00 0.00 0.00 0.00 0.00 0.00 0.00 0.00 0.00 0.00 0.00 0.01 0.01 0.01 0.00 0.00 0.00 0.00 0.00 0.00 0.00 0.00 0.01 0.01 0.01 0.01 0.01
0.01 0.01 0.01 0.02 0.02 0.02 0.01 0.01 0.01 0.01 0.00 0.00 0.00 0.00 0.00 0.00 0.00 0.00 0.00 0.00 0.00 0.00 0.00 0.00 0.00 0.00 0.00 0.00 0.00 0.01 0.01 0.00 0.00 0.00 0.00 0.01 0.01 0.01 0.01 0.01 0.01 0.01 0.01 0.01
0.02 0.02 0.02 0.02 0.02 0.01 0.01 0.01 0.01 0.00 0.00 0.00 0.00 0.00 0.00 0.00 0.00 0.00 0.00 0.00 0.00 0.01 0.00 0.00 0.00 0.00 0.00 0.00 0.00 0.00 0.01 0.01 0.01 0.01 0.01 0.01 0.01 0.01 0.01 0.01 0.01 0.01 0.01 0.01
0.02 0.02 0.02 0.02 0.02 0.01 0.01 0.01 0.00 0.00 0.00 0.00 0.00 0.00 0.00 0.00 0.00 0.00 0.01 0.01 0.00 0.00 0.00 0.00 0.01 0.01 0.00 0.01 0.01 0.01 0.01 0.01 0.01 0.01 0.01 0.01 0.01 0.01 0.01 0.01 0.01 0.01 0.01 0.01
0.02 0.01 0.01 0.01 0.01 0.01 0.00 0.00 0.00 0.00 0.00 0.00 0.00 0.01 0.01 0.01 0.01 0.01 0.01 0.01 0.01 0.01 0.01 0.01 0.01 0.01 0.01 0.01 0.01 0.01 0.01 0.01 0.01 0.01 0.02 0.02 0.02 0.01 0.01 0.01 0.01 0.01 0.01 0.01
0.01 0.01 0.01 0.00 0.00 0.01 0.01 0.01 0.00 0.00 0.01 0.01 0.01 0.01 0.01 0.01 0.01 0.02 0.02 0.02 0.02 0.01 0.01 0.01 0.01 0.01 0.01 0.01 0.01 0.01 0.02 0.01 0.01 0.01 0.02 0.02 0.02 0.01 0.01 0.01 0.01 0.01 0.01 0.01
0.01 0.01 0.01 0.01 0.01 0.01 0.01 0.01 0.01 0.01 0.01 0.01 0.01 0.02 0.02 0.02 0.02 0.02 0.02 0.01 0.01 0.01 0.01 0.01 0.01 0.01 0.01 0.01 0.01 0.01 0.01 0.02 0.01 0.01 0.01 0.01 0.02 0.02 0.02 0.02 0.02 0.02 0.01 0.01
0.01 0.01 0.01 0.01 0.01 0.01 0.02 0.02 0.02 0.02 0.02 0.01 0.01 0.01 0.02 0.02 0.02 0.02 0.01 0.01 0.01 0.01 0.01 0.01 0.01 0.01 0.01 0.01 0.02 0.02 0.02 0.02 0.03 0.03 0.02 0.02 0.02 0.02 0.02 0.02 0.02 0.02 0.02 0.01
0.01 0.01 0.01 0.01 0.01 0.02 0.02 0.02 0.02 0.02 0.02 0.01 0.01 0.01 0.01 0.01 0.01 0.01 0.01 0.01 0.01 0.01 0.01 0.01 0.01 0.01 0.01 0.02 0.02 0.02 0.02 0.03 0.03 0.03 0.03 0.03 0.02 0.02 0.02 0.02 0.02 0.02 0.02 0.01
0.01 0.01 0.01 0.02 0.02 0.02 0.02 0.01 0.01 0.01 0.01 0.01 0.01 0.01 0.01 0.01 0.01 0.01 0.01 0.01 0.01 0.01 0.01 0.01 0.01 0.01 0.01 0.01 0.02 0.02 0.02 0.03 0.03 0.03 0.03 0.03 0.03 0.03 0.03 0.03 0.02 0.02 0.02 0.01
MSLP
1023.02 1022.79 1022.43 1021.96 1021.42 1020.83 1020.23 1019.66 1019.14 1018.68 1018.28 1017.95 1017.69 1017.49 1017.34 1017.23 1017.15 1017.09 1017.03 1016.95 1016.84 1016.68 1016.46 1016.17 1015.83 1015.44 1015.02 1014.61 1014.25 1013.94 1013.73 1013.60 1013.57 1013.61 1013.72 1013.85 1014.01 1014.15 1014.29 1014.42 1014.55 1014.69 1014.89 1015.13
1023.08 1022.71 1022.16 1021.49 1020.73 1019.96 1019.21 1018.54 1017.99 1017.56 1017.25 1017.06 1016.97 1016.95 1016.97 1017.00 1017.03 1017.04 1017.02 1016.95 1016.83 1016.65 1016.42 1016.13 1015.79 1015.41 1015.02 1014.63 1014.26 1013.94 1013.68 1013.51 1013.41 1013.39 1013.43 1013.52 1013.65 1013.79 1013.94 1014.10 1014.26 1014.45 1014.67 1014.92
1023.13 1022.61 1021.89 1021.02 1020.08 1019.12 1018.25 1017.49 1016.91 1016.52 1016.31 1016.25 1016.32 1016.47 1016.64 1016.81 1016.94 1017.01 1017.02 1016.95 1016.82 1016.62 1016.37 1016.07 1015.73 1015.37 1014.98 1014.60 1014.23 1013.89 1013.61 1013.38 1013.22 1013.13 1013.12 1013.16 1013.25 1013.38 1013.54 1013.72 1013.92 1014.13 1014.37 1014.63
1023.03 1022.39 1021.53 1020.51 1019.43 1018.36 1017.40 1016.61 1016.03 1015.69 1015.58 1015.65 1015.86 1016.14 1016.45 1016.72 1016.93 1017.05 1017.07 1016.99 1016.83 1016.61 1016.33 1016.01 1015.67 1015.30 1014.92 1014.54 1014.16 1013.80 1013.48 1013.20 1012.98 1012.83 1012.75 1012.74 1012.80 1012.91 1013.06 1013.25 1013.46 1013.69 1013.95 1014.22
1022.61 1021.89 1020.95 1019.87 1018.73 1017.64 1016.67 1015.91 1015.39 1015.14 1015.12 1015.31 1015.64 1016.04 1016.44 1016.78 1017.04 1017.17 1017.18 1017.08 1016.89 1016.62 1016.31 1015.96 1015.60 1015.22 1014.84 1014.44 1014.05 1013.67 1013.30 1012.98 1012.70 1012.48 1012.33 1012.27 1012.28 1012.35 1012.49 1012.67 1012.88 1013.13 1013.39 1013.68
1021.75 1021.02 1020.09 1019.03 1017.94 1016.91 1016.04 1015.38 1014.98 1014.84 1014.95 1015.25 1015.68 1016.16 1016.61 1016.99 1017.25 1017.37 1017.35 1017.21 1016.97 1016.65 1016.30 1015.92 1015.53 1015.13 1014.73 1014.33 1013.91 1013.50 1013.09 1012.71 1012.37 1012.09 1011.88 1011.75 1011.70 1011.73 1011.84 1012.00 1012.21 1012.45 1012.72 1013.01
1020.44 1019.75 1018.91 1017.97 1017.03 1016.17 1015.47 1014.98 1014.75 1014.76 1015.00 1015.41 1015.91 1016.44 1016.92 1017.29 1017.53 1017.61 1017.55 1017.35 1017.05 1016.69 1016.30 1015.88 1015.46 1015.05 1014.62 1014.20 1013.76 1013.31 1012.87 1012.44 1012.04 1011.69 1011.41 1011.21 1011.11 1011.09 1011.15 1011.28 1011.47 1011.70 1011.97 1012.28
1018.78 1018.19 1017.50 1016.76 1016.04 1015.41 1014.95 1014.69 1014.65 1014.83 1015.20 1015.69 1016.25 1016.80 1017.27 1017.62 1017.81 1017.84 1017.72 1017.47 1017.12 1016.72 1016.28 1015.84 1015.39 1014.96 1014.52 1014.07 1013.60 1013.13 1012.65 1012.17 1011.72 1011.31 1010.96 1010.70 1010.53 1010.46 1010.47 1010.56 1010.72 1010.94 1011.21 1011.52
1016.97 1016.53 1016.03 1015.53 1015.07 1014.72 1014.51 1014.48 1014.65 1014.98 1015.46 1016.02 1016.60 1017.14 1017.58 1017.88 1018.01 1017.99 1017.81 1017.51 1017.13 1016.69 1016.24 1015.77 1015.32 1014.86 1014.41 1013.95 1013.46 1012.96 1012.44 1011.93 1011.42 1010.96 1010.56 1010.24 1010.01 1009.87 1009.83 1009.87 1010.00 1010.19 1010.45 1010.78
1015.28 1015.00 1014.72 1014.46 1014.27 1014.17 1014.21 1014.39 1014.72 1015.18 1015.73 1016.31 1016.88 1017.38 1017.77 1018.00 1018.08 1018.00 1017.78 1017.46 1017.05 1016.61 1016.14 1015.68 1015.22 1014.76 1014.30 1013.83 1013.33 1012.80 1012.26 1011.71 1011.17 1010.65 1010.20 1009.82 1009.53 1009.34 1009.24 1009.24 1009.33 1009.50 1009.75 1010.07
1013.98 1013.87 1013.79 1013.74 1013.77 1013.89 1014.12 1014.45 1014.89 1015.41 1015.97 1016.54 1017.06 1017.49 1017.80 1017.97 1017.99 1017.86 1017.62 1017.27 1016.87 1016.43 1015.98 1015.52 1015.08 1014.62 1014.17 1013.68 1013.17 1012.63 1012.07 1011.49 1010.91 1010.36 1009.86 1009.44 1009.09 1008.85 1008.70 1008.66 1008.71 1008.85 1009.09 1009.41
1013.27 1013.31 1013.38 1013.51 1013.70 1013.96 1014.30 1014.70 1015.17 1015.68 1016.20 1016.70 1017.13 1017.46 1017.69 1017.77 1017.73 1017.57 1017.31 1016.96 1016.57 1016.15 1015.72 1015.29 1014.86 1014.42 1013.96 1013.48 1012.96 1012.41 1011.83 1011.23 1010.63 1010.05 1009.51 1009.04 1008.66 1008.37 1008.18 1008.10 1008.12 1008.24 1008.46 1008.79
1013.21 1013.35 1013.54 1013.77 1014.05 1014.37 1014.74 1015.14 1015.57 1016.00 1016.42 1016.80 1017.11 1017.33 1017.45 1017.46 1017.36 1017.16 1016.88 1016.54 1016.16 1015.77 1015.36 1014.95 1014.53 1014.11 1013.66 1013.17 1012.65 1012.09 1011.50 1010.88 1010.26 1009.66 1009.10 1008.61 1008.19 1007.87 1007.65 1007.54 1007.54 1007.64 1007.86 1008.18
1013.69 1013.92 1014.18 1014.45 1014.75 1015.06 1015.39 1015.72 1016.04 1016.35 1016.64 1016.87 1017.04 1017.14 1017.14 1017.07 1016.90 1016.67 1016.37 1016.03 1015.66 1015.28 1014.89 1014.49 1014.09 1013.67 1013.22 1012.74 1012.21 1011.65 1011.05 1010.43 1009.80 1009.19 1008.62 1008.10 1007.67 1007.33 1007.09 1006.96 1006.95 1007.05 1007.27 1007.60
1014.55 1014.83 1015.11 1015.39 1015.65 1015.90 1016.14 1016.35 1016.55 1016.71 1016.84 1016.92 1016.94 1016.91 1016.81 1016.64 1016.41 1016.13 1015.80 1015.45 1015.08 1014.69 1014.31 1013.91 1013.51 1013.09 1012.64 1012.16 1011.64 1011.08 1010.48 1009.87 1009.24 1008.63 1008.05 1007.53 1007.09 1006.75 1006.50 1006.38 1006.37 1006.48 1006.72 1007.07
1015.55 1015.85 1016.13 1016.37 1016.58 1016.74 1016.86 1016.95 1017.00 1017.02 1017.00 1016.93 1016.82 1016.67 1016.46 1016.21 1015.91 1015.58 1015.21 1014.83 1014.43 1014.04 1013.63 1013.23 1012.82 1012.39 1011.95 1011.47 1010.95 1010.40 1009.82 1009.22 1008.60 1008.00 1007.44 1006.93 1006.49 1006.15 1005.92 1005.80 1005.81 1005.94 1006.21 1006.59
1016.47 1016.77 1017.03 1017.22 1017.35 1017.42 1017.44 1017.41 1017.33 1017.22 1017.07 1016.89 1016.67 1016.41 1016.11 1015.78 1015.41 1015.02 1014.61 1014.18 1013.75 1013.32 1012.90 1012.47 1012.05 1011.61 1011.17 1010.69 1010.19 1009.66 1009.10 1008.52 1007.93 1007.36 1006.81 1006.31 1005.89 1005.57 1005.35 1005.26 1005.29 1005.46 1005.76 1006.19
1017.16 1017.45 1017.66 1017.80 1017.86 1017.85 1017.78 1017.65 1017.48 1017.27 1017.03 1016.76 1016.45 1016.11 1015.74 1015.35 1014.92 1014.47 1014.00 1013.53 1013.05 1012.58 1012.12 1011.67 1011.23 1010.79 1010.35 1009.89 1009.41 1008.91 1008.38 1007.83 1007.27 1006.72 1006.20 1005.73 1005.33 1005.02 1004.83 1004.76 1004.83 1005.04 1005.39 1005.86
1017.57 1017.81 1017.98 1018.06 1018.06 1017.99 1017.85 1017.66 1017.43 1017.15 1016.85 1016.52 1016.16 1015.77 1015.34 1014.89 1014.41 1013.91 1013.39 1012.87 1012.34 1011.84 1011.34 1010.87 1010.42 1009.98 1009.54 1009.10 1008.65 1008.17 1007.68 1007.17 1006.64 1006.12 1005.63 1005.18 1004.81 1004.52 1004.36 1004.32 1004.43 1004.68 1005.07 1005.60
1017.72 1017.92 1018.03 1018.06 1018.01 1017.88 1017.70 1017.47 1017.19 1016.88 1016.55 1016.18 1015.78 1015.35 1014.89 1014.40 1013.88 1013.33 1012.77 1012.20 1011.64 1011.10 1010.58 1010.09 1009.63 1009.19 1008.76 1008.34 1007.92 1007.47 1007.01 1006.53 1006.04 1005.55 1005.09 1004.66 1004.31 1004.06 1003.92 1003.92 1004.06 1004.35 1004.79 1005.37
1017.72 1017.86 1017.92 1017.89 1017.79 1017.63 1017.41 1017.14 1016.84 1016.50 1016.14 1015.75 1015.33 1014.88 1014.38 1013.86 1013.30 1012.72 1012.12 1011.53 1010.94 1010.37 1009.83 1009.33 1008.86 1008.43 1008.01 1007.61 1007.20 1006.78 1006.35 1005.90 1005.44 1004.98 1004.54 1004.14 1003.82 1003.60 1003.49 1003.52 1003.70 1004.04 1004.52 1005.14
1017.68 1017.76 1017.76 1017.68 1017.53 1017.33 1017.07 1016.77 1016.44 1016.07 1015.69 1015.27 1014.82 1014.34 1013.82 1013.27 1012.68 1012.07 1011.45 1010.83 1010.22 1009.64 1009.09 1008.58 1008.11 1007.67 1007.26 1006.87 1006.47 1006.07 1005.66 1005.23 1004.79 1004.36 1003.95 1003.59 1003.30 1003.11 1003.05 1003.13 1003.35 1003.73 1004.26 1004.92
1017.69 1017.71 1017.65 1017.52 1017.33 1017.07 1016.76 1016.42 1016.05 1015.65 1015.22 1014.77 1014.28 1013.76 1013.21 1012.63 1012.01 1011.38 1010.74 1010.11 1009.49 1008.89 1008.33 1007.82 1007.34 1006.90 1006.49 1006.09 1005.69 1005.30 1004.89 1004.48 1004.07 1003.67 1003.29 1002.98 1002.74 1002.61 1002.60 1002.74 1003.02 1003.45 1004.03 1004.73
1017.81 1017.78 1017.67 1017.48 1017.23 1016.92 1016.56 1016.16 1015.72 1015.26 1014.77 1014.26 1013.72 1013.15 1012.56 1011.94 1011.29 1010.64 1009.99 1009.34 1008.71 1008.11 1007.55 1007.02 1006.53 1006.08 1005.66 1005.25 1004.85 1004.45 1004.06 1003.66 1003.28 1002.92 1002.60 1002.34 1002.18 1002.12 1002.19 1002.40 1002.75 1003.25 1003.87 1004.61
1018.04 1017.96 1017.81 1017.57 1017.27 1016.89 1016.46 1015.99 1015.47 1014.93 1014.36 1013.77 1013.16 1012.52 1011.87 1011.20 1010.53 1009.85 1009.18 1008.52 1007.88 1007.28 1006.71 1006.18 1005.68 1005.22 1004.78 1004.36 1003.96 1003.56 1003.18 1002.81 1002.47 1002.16 1001.91 1001.74 1001.67 1001.71 1001.88 1002.17 1002.61 1003.17 1003.86 1004.63
1018.36 1018.25 1018.06 1017.78 1017.41 1016.97 1016.46 1015.90 1015.29 1014.65 1013.99 1013.30 1012.59 1011.88 1011.16 1010.44 1009.72 1009.01 1008.32 1007.66 1007.02 1006.41 1005.85 1005.31 1004.81 1004.34 1003.90 1003.48 1003.08 1002.70 1002.34 1002.01 1001.73 1001.49 1001.34 1001.27 1001.30 1001.45 1001.73 1002.14 1002.66 1003.30 1004.04 1004.85
1018.73 1018.61 1018.38 1018.05 1017.63 1017.12 1016.53 1015.87 1015.16 1014.42 1013.64 1012.85 1012.04 1011.24 1010.44 1009.66 1008.90 1008.16 1007.45 1006.78 1006.14 1005.55 1004.99 1004.46 1003.97 1003.52 1003.09 1002.69 1002.31 1001.96 1001.65 1001.38 1001.17 1001.03 1000.98 1001.02 1001.17 1001.44 1001.83 1002.34 1002.95 1003.65 1004.43 1005.27
Thickness
5546 5550 5547 5544 5544 5543 5537 5535 5532 5544 5548 5550 5547 5543 5540 5537 5534 5531 5527 5524 5522 5519 5518 5517 5515 5514 5513 5512 5511 5510 5509 5507 5506 5505 5504 5503 5502 5502 5501 5500 5499 5498 5496 5495
5530 5540 5539 5537 5542 5541 5539 5539 5539 5541 5544 5549 5545 5540 5535 5531 5529 5525 5522 5520 5517 5515 5513 5511 5509 5508 5507 5505 5504 5503 5502 5501 5499 5497 5495 5494 5492 5491 5490 5489 5488 5487 5486 5485
5517 5531 5528 5526 5543 5541 5540 5542 5539 5534 5540 5541 5536 5534 5529 5526 5522 5519 5516 5514 5511 5508 5506 5504 5503 5502 5500 5499 5497 5496 5494 5493 5491 5489 5487 5485 5484 5482 5480 5479 5478 5477 5476 5475
5505 5511 5505 5540 5547 5546 5540 5540 5538 5538 5537 5535 5531 5528 5525 5521 5516 5512 5510 5507 5504 5501 5499 5498 5497 5496 5495 5493 5491 5489 5487 5485 5484 5482 5479 5477 5475 5473 5472 5470 5469 5467 5467 5466
5495 5498 5515 5532 5536 5535 5530 5529 5533 5530 5528 5526 5523 5518 5515 5514 5510 5505 5502 5499 5497 5494 5492 5491 5490 5489 5487 5484 5482 5480 5478 5477 5475 5473 5471 5469 5467 5465 5463 5462 5460 5459 5458 5456
5490 5492 5505 5527 5527 5529 5524 5515 5523 5522 5518 5514 5509 5500 5503 5505 5502 5498 5495 5491 5489 5487 5485 5483 5482 5480 5478 5476 5473 5471 5470 5468 5466 5464 5463 5461 5459 5457 5455 5453 5451 5449 5448 5447
5481 5486 5503 5515 5515 5514 5503 5507 5513 5511 5508 5503 5498 5495 5494 5494 5491 5488 5485 5483 5481 5479 5476 5474 5473 5472 5469 5467 5464 5463 5461 5459 5457 5456 5454 5452 5450 5448 5445 5443 5441 5439 5438 5437
5477 5477 5490 5499 5498 5495 5497 5501 5502 5500 5498 5494 5490 5487 5485 5483 5480 5477 5475 5473 5472 5469 5467 5465 5464 5462 5460 5458 5456 5454 5452 5450 5449 5447 5445 5444 5441 5438 5436 5433 5431 5429 5427 5426
5479 5485 5492 5491 5491 5492 5492 5490 5490 5488 5486 5483 5479 5476 5473 5471 5468 5467 5465 5463 5460 5458 5456 5455 5454 5452 5450 5448 5447 5445 5443 5441 5440 5438 5436 5434 5431 5429 5426 5423 5421 5419 5417 5416
5472 5479 5482 5481 5482 5481 5481 5479 5478 5476 5474 5471 5467 5464 5462 5459 5457 5456 5454 5452 5450 5448 5446 5444 5443 5442 5440 5439 5437 5435 5433 5431 5430 5428 5426 5424 5421 5419 5416 5413 5411 5409 5407 5406
5458 5465 5468 5470 5468 5467 5467 5466 5464 5463 5461 5459 5456 5453 5451 5448 5446 5444 5443 5441 5439 5436 5435 5434 5433 5431 5430 5428 5426 5424 5422 5421 5419 5417 5415 5413 5410 5408 5406 5405 5402 5400 5398 5395
5448 5455 5453 5455 5455 5455 5453 5452 5452 5450 5448 5447 5445 5442 5440 5436 5435 5433 5431 5430 5427 5426 5424 5423 5421 5420 5418 5417 5415 5414 5412 5409 5407 5405 5403 5401 5399 5397 5396 5394 5393 5391 5388 5386
5442 5444 5443 5444 5443 5443 5441 5440 5439 5437 5436 5434 5432 5430 5428 5425 5423 5421 5420 5418 5416 5414 5413 5411 5410 5409 5408 5406 5404 5402 5400 5398 5395 5393 5391 5389 5387 5385 5383 5383 5382 5380 5378 5377
5428 5428 5427 5428 5427 5428 5427 5426 5425 5424 5423 5421 5419 5417 5415 5412 5411 5409 5408 5406 5405 5403 5401 5400 5398 5397 5396 5395 5393 5391 5388 5387 5384 5382 5380 5378 5375 5373 5371 5370 5369 5368 5368 5366
5413 5413 5413 5414 5414 5414 5413 5411 5410 5408 5408 5407 5405 5403 5401 5400 5399 5398 5397 5395 5393 5391 5390 5388 5387 5386 5384 5383 5381 5379 5377 5375 5373 5371 5369 5367 5365 5363 5361 5359 5358 5357 5356 5355
5398 5398 5399 5399 5399 5398 5397 5396 5395 5394 5393 5392 5391 5390 5389 5388 5387 5386 5385 5383 5381 5379 5378 5377 5375 5374 5372 5370 5369 5367 5365 5364 5362 5359 5358 5356 5354 5352 5350 5348 5347 5346 5345 5344
5384 5383 5383 5383 5384 5383 5382 5381 5380 5380 5379 5378 5377 5376 5375 5374 5374 5374 5373 5371 5369 5368 5366 5365 5364 5362 5361 5359 5357 5355 5354 5353 5351 5348 5346 5345 5343 5341 5339 5338 5337 5336 5335 5334
5375 5376 5375 5374 5373 5371 5370 5369 5368 5367 5366 5365 5364 5363 5362 5361 5361 5360 5359 5358 5357 5355 5354 5352 5351 5350 5349 5347 5345 5344 5342 5341 5339 5337 5336 5335 5333 5331 5329 5328 5327 5326 5325 5324
5363 5363 5363 5362 5360 5359 5357 5356 5355 5354 5353 5352 5351 5350 5349 5348 5347 5346 5345 5344 5342 5342 5342 5341 5340 5339 5337 5336 5334 5332 5331 5330 5329 5327 5326 5326 5324 5321 5320 5318 5317 5315 5315 5314
5350 5349 5348 5347 5347 5345 5343 5342 5341 5340 5339 5338 5337 5336 5336 5335 5334 5333 5332 5331 5330 5330 5330 5329 5327 5326 5325 5324 5323 5321 5320 5320 5318 5317 5316 5314 5313 5312 5310 5309 5307 5306 5305 5304
5336 5335 5334 5333 5332 5331 5330 5329 5328 5327 5326 5325 5324 5323 5323 5322 5321 5320 5319 5320 5320 5318 5318 5317 5315 5314 5313 5312 5312 5311 5310 5309 5308 5306 5305 5304 5303 5302 5300 5299 5298 5296 5296 5295
5322 5322 5321 5320 5319 5318 5317 5316 5315 5314 5313 5312 5312 5311 5311 5311 5310 5309 5309 5308 5308 5308 5306 5305 5304 5303 5303 5303 5302 5301 5300 5299 5298 5297 5295 5294 5293 5292 5291 5289 5288 5287 5286 5285
5309 5309 5308 5307 5306 5305 5304 5304 5303 5302 5302 5301 5300 5300 5300 5300 5299 5298 5298 5297 5296 5296 5295 5294 5294 5295 5295 5293 5292 5291 5290 5289 5288 5287 5286 5284 5283 5282 5281 5280 5279 5278 5277 5276
5296 5295 5295 5294 5294 5293 5292 5292 5292 5291 5291 5290 5290 5289 5288 5288 5288 5287 5286 5286 5286 5286 5285 5284 5285 5285 5285 5283 5282 5281 5280 5279 5278 5277 5276 5275 5274 5273 5272 5271 5270 5269 5268 5267
5284 5283 5282 5282 5281 5281 5281 5281 5280 5280 5280 5280 5279 5278 5277 5277 5276 5276 5275 5275 5275 5275 5274 5274 5275 5275 5273 5272 5272 5271 5270 5270 5269 5268 5267 5266 5265 5264 5263 5262 5261 5260 5260 5259
5272 5271 5271 5271 5270 5270 5270 5270 5269 5269 5269 5269 5268 5267 5266 5266 5265 5265 5264 5264 5264 5265 5264 5264 5263 5263 5262 5262 5262 5261 5261 5261 5260 5259 5258 5257 5256 5255 5255 5254 5253 5252 5252 5251
5260 5260 5260 5260 5260 5259 5259 5258 5258 5257 5257 5257 5257 5256 5255 5255 5255 5254 5254 5254 5254 5254 5254 5254 5254 5253 5253 5252 5252 5252 5252 5251 5251 5250 5250 5249 5249 5248 5247 5246 5246 5245 5244 5244